Hourly Data Report for September 01, 2017

All times are specified in Local Standard Time (LST). Add 1 hour to adjust for Daylight Saving Time where and when it is observed.

PENTICTON A
BRITISH COLUMBIA

49°27'45.000" N
119°36'08.000" W
344.40 m
1126146
71889
YYF

Download Data

Hourly Data (September 2017)
Hourly Data Report for September 1, 2017
Temp Definition
°C
Dew Point Temp Definition
°C
Rel Hum Definition
%
Wind Dir Definition
10's deg

Wind Spd Definition
km/h
Visibility Definition
km
Stn Press Definition
kPa
Hmdx Definition


Wind Chill Definition


Weather Definition


TIME
00:00 Legend Double Dagger 18.6 4.5 39 33 7 24.1 97.71     LegendNANA
01:00 Legend Double Dagger 15.8 4.4 46 31 8 24.1 97.75     Mainly Clear
02:00 Legend Double Dagger 15.8 4.6 47 32 7 24.1 97.75     LegendNANA
03:00 Legend Double Dagger 15.0 4.7 50 6 3 24.1 97.78     LegendNANA
04:00 Legend Double Dagger 13.5 5.3 57 2 4 24.1 97.82     Mainly Clear
05:00 Legend Double Dagger 11.3 4.8 64 25 5 24.1 97.82     LegendNANA
06:00 Legend Double Dagger 10.9 4.0 62 28 5 24.1 97.88     LegendNANA
07:00 Legend Double Dagger 17.4 8.3 55 15 4 24.1 97.88     Mainly Clear
08:00 Legend Double Dagger 20.0 8.2 46 16 9 24.1 97.87     LegendNANA
09:00 Legend Double Dagger 22.4 5.2 32 19 4 24.1 97.86     LegendNANA
10:00 Legend Double Dagger 23.9 8.6 37 19 8 24.1 97.80 25   Mainly Clear
11:00 Legend Double Dagger 27.2 6.5 26 17 13 24.1 97.67 27   LegendNANA
12:00 Legend Double Dagger 28.6 6.2 24 17 23 16.1 97.57 28   LegendNANA
13:00 Legend Double Dagger 29.3 7.7 25 18 27 16.1 97.49 30   Mainly Clear
14:00 Legend Double Dagger 29.4 5.4 21 16 26 16.1 97.41 29   LegendNANA
15:00 Legend Double Dagger 30.9 6.4 21 17 26 24.1 97.36 31   LegendNANA
16:00 Legend Double Dagger 29.9 8.2 25 16 24 24.1 97.32 30   Mainly Clear
17:00 Legend Double Dagger 31.0 6.1 21 17 26 24.1 97.30 31   LegendNANA
18:00 Legend Double Dagger 29.2 8.7 27 17 17 24.1 97.31 30   LegendNANA
19:00 Legend Double Dagger 27.6 8.0 29 16 14 24.1 97.32 28   Mainly Clear
20:00 Legend Double Dagger 26.4 10.1 35 18 17 24.1 97.36 28   LegendNANA
21:00 Legend Double Dagger 23.7 8.3 37 11 6 24.1 97.39     LegendNANA
22:00 Legend Double Dagger 20.4 8.8 47 8 7 24.1 97.43     Clear
23:00 Legend Double Dagger 18.8 8.2 49 18 3 24.1 97.49     LegendNANA

Notes on Data Quality.

Legend

  • E = Estimated
  • M = Missing
  • NA = Not Available
  • ‡ = Partner data that is not subject to review by the National Climate Archives
Date modified: